Tracking 27420 objects as of 28-May-2023
HD Live streaming from Space Station
objects crossing your sky now

OBJECT J

Track OBJECT J now!
10-day predictions


NORAD ID: 51832
Int'l Code: 2022-019J
Perigee: 529.2 km
Apogee: 544.7 km
Inclination: 97.5 °
Period: 95.2 minutes
Semi major axis: 6907 km
RCS: Unknown
Launch date: February 27, 2022
Source: People's Republic of China (PRC)
Launch site: Wenchang Satellite Launch Center (WSC)
Your satellite tracking list
Your tracking list is empty




NASA's NSSDC Master Catalog

Two Line Element Set (TLE):
1 51832U 22019J   23148.45464944  .00002440  00000-0  14537-3 0  9994
2 51832  97.4744 220.8807 0011220 142.6405 217.5608 15.12081509 68725
Source of the keplerian elements: AFSPC